Time,TemperatureF,DewpointF,PressureIn,WindDirection,WindDirectionDegrees,WindSpeedMPH,WindSpeedGustMPH,Humidity,HourlyPrecipIn,Conditions,Clouds,dailyrainin,SoftwareType,DateUTC
2013-03-30 00:00:00,40.6,25.8,30.27,South,187,2.7,2.7,55,0.00,,---,0.00,VWS V14.01,2013-03-30 06:00:00,
2013-03-30 00:05:00,40.6,25.3,30.27,WSW,254,2.2,3.6,54,0.00,,---,0.00,VWS V14.01,2013-03-30 06:05:00,
2013-03-30 00:10:00,40.5,25.1,30.27,West,262,0.0,3.6,54,0.00,,---,0.00,VWS V14.01,2013-03-30 06:10:00,
2013-03-30 00:15:00,40.3,25.0,30.27,West,267,0.0,0.0,54,0.00,,---,0.00,VWS V14.01,2013-03-30 06:15:00,
2013-03-30 00:20:00,39.7,24.0,30.27,WSW,255,0.0,0.0,53,0.00,,---,0.00,VWS V14.01,2013-03-30 06:20:00,
2013-03-30 00:25:00,39.2,23.5,30.27,WSW,244,0.0,2.2,53,0.00,,---,0.00,VWS V14.01,2013-03-30 06:25:00,
2013-03-30 00:30:00,38.8,23.6,30.27,WSW,253,0.0,0.0,54,0.00,,---,0.00,VWS V14.01,2013-03-30 06:30:00,
2013-03-30 00:35:00,38.5,23.3,30.27,WSW,249,0.0,0.0,54,0.00,,---,0.00,VWS V14.01,2013-03-30 06:35:00,
2013-03-30 00:40:00,38.1,23.0,30.27,WSW,249,0.0,0.0,54,0.00,,---,0.00,VWS V14.01,2013-03-30 06:40:00,
2013-03-30 00:45:00,37.8,22.6,30.27,WSW,249,0.0,0.0,54,0.00,,---,0.00,VWS V14.01,2013-03-30 06:45:00,
2013-03-30 00:50:00,37.4,22.3,30.27,SW,220,0.0,0.0,54,0.00,,---,0.00,VWS V14.01,2013-03-30 06:50:00,
2013-03-30 00:55:00,37.2,22.1,30.27,SE,144,0.0,0.0,54,0.00,,---,0.00,VWS V14.01,2013-03-30 06:55:00,
2013-03-30 01:00:00,36.9,21.8,30.27,SW,235,0.0,0.0,54,0.00,,---,0.00,VWS V14.01,2013-03-30 07:00:00,
2013-03-30 01:05:00,37.0,22.4,30.27,WSW,238,0.0,0.0,55,0.00,,---,0.00,VWS V14.01,2013-03-30 07:05:00,
2013-03-30 01:10:00,37.4,22.7,30.27,WSW,238,0.0,0.0,55,0.00,,---,0.00,VWS V14.01,2013-03-30 07:10:00,
2013-03-30 01:15:00,37.6,23.7,30.27,West,274,0.0,0.0,57,0.00,,---,0.00,VWS V14.01,2013-03-30 07:15:00,
2013-03-30 01:20:00,37.8,23.9,30.27,WNW,282,0.0,0.0,57,0.00,,---,0.00,VWS V14.01,2013-03-30 07:20:00,
2013-03-30 01:25:00,37.9,24.1,30.27,WNW,282,0.0,0.0,57,0.00,,---,0.00,VWS V14.01,2013-03-30 07:25:00,
2013-03-30 01:30:00,38.1,23.8,30.27,SSW,203,0.0,0.0,56,0.00,,---,0.00,VWS V14.01,2013-03-30 07:30:00,
2013-03-30 01:35:00,38.1,23.8,30.27,WSW,237,0.0,0.0,56,0.00,,---,0.00,VWS V14.01,2013-03-30 07:35:00,
2013-03-30 01:40:00,38.5,24.6,30.27,WSW,243,0.0,0.0,57,0.00,,---,0.00,VWS V14.01,2013-03-30 07:40:00,
2013-03-30 01:45:00,38.5,24.2,30.27,WSW,243,0.0,0.0,56,0.00,,---,0.00,VWS V14.01,2013-03-30 07:45:00,
2013-03-30 01:50:00,38.5,24.2,30.27,WSW,245,0.0,0.0,56,0.00,,---,0.00,VWS V14.01,2013-03-30 07:50:00,
2013-03-30 01:55:00,38.3,24.0,30.27,WSW,245,0.0,0.0,56,0.00,,---,0.00,VWS V14.01,2013-03-30 07:55:00,
2013-03-30 02:00:00,38.1,23.8,30.27,WSW,245,0.0,0.0,56,0.00,,---,0.00,VWS V14.01,2013-03-30 08:00:00,
2013-03-30 02:05:00,37.6,23.3,30.27,WSW,245,0.0,0.0,56,0.00,,---,0.00,VWS V14.01,2013-03-30 08:05:00,
2013-03-30 02:10:00,37.4,23.1,30.27,WSW,245,0.0,0.0,56,0.00,,---,0.00,VWS V14.01,2013-03-30 08:10:00,
2013-03-30 02:15:00,37.0,23.2,30.27,WSW,245,0.0,0.0,57,0.00,,---,0.00,VWS V14.01,2013-03-30 08:15:00,
2013-03-30 02:20:00,36.9,22.6,30.27,WSW,245,0.0,0.0,56,0.00,,---,0.00,VWS V14.01,2013-03-30 08:20:00,
2013-03-30 02:25:00,36.7,22.5,30.27,WSW,245,0.0,0.0,56,0.00,,---,0.00,VWS V14.01,2013-03-30 08:25:00,
2013-03-30 02:30:00,36.7,22.9,30.27,SW,228,3.1,3.1,57,0.00,,---,0.00,VWS V14.01,2013-03-30 08:30:00,
2013-03-30 02:35:00,36.7,22.9,30.27,SW,228,0.0,3.1,57,0.00,,---,0.00,VWS V14.01,2013-03-30 08:35:00,
2013-03-30 02:40:00,36.5,22.7,30.27,SW,217,0.0,3.1,57,0.00,,---,0.00,VWS V14.01,2013-03-30 08:40:00,
2013-03-30 02:45:00,36.0,21.8,30.27,SW,217,0.0,0.0,56,0.00,,---,0.00,VWS V14.01,2013-03-30 08:45:00,
2013-03-30 02:50:00,35.4,21.7,30.27,SW,218,0.0,0.0,57,0.00,,---,0.00,VWS V14.01,2013-03-30 08:50:00,
2013-03-30 02:55:00,35.2,21.5,30.27,SW,220,0.0,0.0,57,0.00,,---,0.00,VWS V14.01,2013-03-30 08:55:00,
2013-03-30 03:00:00,35.4,22.1,30.27,SW,221,0.0,0.0,58,0.00,,---,0.00,VWS V14.01,2013-03-30 09:00:00,
2013-03-30 03:05:00,35.4,22.1,30.27,SW,220,0.0,0.0,58,0.00,,---,0.00,VWS V14.01,2013-03-30 09:05:00,
2013-03-30 03:10:00,35.4,22.5,30.27,WSW,242,0.0,2.2,59,0.00,,---,0.00,VWS V14.01,2013-03-30 09:10:00,
2013-03-30 03:15:00,35.4,22.5,30.27,SW,221,0.0,2.2,59,0.00,,---,0.00,VWS V14.01,2013-03-30 09:15:00,
2013-03-30 03:20:00,35.6,22.7,30.27,SW,230,0.0,2.2,59,0.00,,---,0.00,VWS V14.01,2013-03-30 09:20:00,
2013-03-30 03:25:00,35.8,22.9,30.27,WSW,240,0.0,2.2,59,0.00,,---,0.00,VWS V14.01,2013-03-30 09:25:00,
2013-03-30 03:30:00,36.1,23.2,30.30,WSW,243,0.0,0.0,59,0.00,,---,0.00,VWS V14.01,2013-03-30 09:30:00,
2013-03-30 03:34:00,36.1,23.2,30.30,WSW,243,0.0,0.0,59,0.00,,---,0.00,VWS V14.01,2013-03-30 09:34:00,
2013-03-30 03:39:00,36.3,23.4,30.30,WSW,243,0.0,0.0,59,0.00,,---,0.00,VWS V14.01,2013-03-30 09:39:00,
2013-03-30 03:44:00,36.3,23.4,30.30,SSE,165,0.0,0.0,59,0.00,,---,0.00,VWS V14.01,2013-03-30 09:44:00,
2013-03-30 03:49:00,36.3,23.4,30.30,SSE,165,0.0,0.0,59,0.00,,---,0.00,VWS V14.01,2013-03-30 09:49:00,
2013-03-30 03:54:00,36.5,23.5,30.30,SSE,166,0.0,0.0,59,0.00,,---,0.00,VWS V14.01,2013-03-30 09:54:00,
2013-03-30 03:59:00,36.7,23.7,30.30,SSW,211,0.0,0.0,59,0.00,,---,0.00,VWS V14.01,2013-03-30 09:59:00,
2013-03-30 04:04:00,36.9,23.9,30.30,SSW,211,0.0,0.0,59,0.00,,---,0.00,VWS V14.01,2013-03-30 10:04:00,
2013-03-30 04:09:00,36.7,23.7,30.30,SSW,211,0.0,0.0,59,0.00,,---,0.00,VWS V14.01,2013-03-30 10:09:00,
2013-03-30 04:14:00,36.7,23.7,30.27,SSW,211,0.0,0.0,59,0.00,,---,0.00,VWS V14.01,2013-03-30 10:14:00,
2013-03-30 04:19:00,36.5,23.5,30.27,SSW,211,0.0,0.0,59,0.00,,---,0.00,VWS V14.01,2013-03-30 10:19:00,
2013-03-30 04:24:00,36.3,23.4,30.27,SSW,211,0.0,0.0,59,0.00,,---,0.00,VWS V14.01,2013-03-30 10:24:00,
2013-03-30 04:29:00,36.0,23.0,30.30,SSW,211,0.0,0.0,59,0.00,,---,0.00,VWS V14.01,2013-03-30 10:29:00,
2013-03-30 04:34:00,35.8,22.9,30.30,SSW,211,0.0,0.0,59,0.00,,---,0.00,VWS V14.01,2013-03-30 10:34:00,
2013-03-30 04:39:00,35.6,22.7,30.30,SSW,211,0.0,0.0,59,0.00,,---,0.00,VWS V14.01,2013-03-30 10:39:00,
2013-03-30 04:44:00,35.4,22.9,30.30,SSW,211,0.0,0.0,60,0.00,,---,0.00,VWS V14.01,2013-03-30 10:44:00,
2013-03-30 04:49:00,35.6,23.1,30.30,SSW,211,0.0,0.0,60,0.00,,---,0.00,VWS V14.01,2013-03-30 10:49:00,
2013-03-30 04:54:00,35.4,22.9,30.30,WSW,238,0.0,0.0,60,0.00,,---,0.00,VWS V14.01,2013-03-30 10:54:00,
2013-03-30 04:59:00,35.4,22.9,30.30,WSW,248,0.0,0.0,60,0.00,,---,0.00,VWS V14.01,2013-03-30 10:59:00,
2013-03-30 05:04:00,35.1,22.6,30.30,WSW,248,0.0,0.0,60,0.00,,---,0.00,VWS V14.01,2013-03-30 11:04:00,
2013-03-30 05:09:00,34.9,22.4,30.30,WSW,248,0.0,0.0,60,0.00,,---,0.00,VWS V14.01,2013-03-30 11:09:00,
2013-03-30 05:14:00,34.9,22.8,30.30,WSW,248,0.0,0.0,61,0.00,,---,0.00,VWS V14.01,2013-03-30 11:14:00,
2013-03-30 05:19:00,34.9,22.8,30.30,WSW,258,0.0,2.7,61,0.00,,---,0.00,VWS V14.01,2013-03-30 11:19:00,
2013-03-30 05:24:00,34.7,22.6,30.30,WSW,258,0.0,2.7,61,0.00,,---,0.00,VWS V14.01,2013-03-30 11:24:00,
2013-03-30 05:29:00,34.5,22.5,30.30,WSW,258,0.0,2.7,61,0.00,,---,0.00,VWS V14.01,2013-03-30 11:29:00,
2013-03-30 05:34:00,34.3,22.3,30.30,WSW,258,0.0,0.0,61,0.00,,---,0.00,VWS V14.01,2013-03-30 11:34:00,
2013-03-30 05:39:00,34.0,22.0,30.30,WSW,258,0.0,0.0,61,0.00,,---,0.00,VWS V14.01,2013-03-30 11:39:00,
2013-03-30 05:44:00,33.8,21.8,30.30,WSW,258,0.0,0.0,61,0.00,,---,0.00,VWS V14.01,2013-03-30 11:44:00,
2013-03-30 05:49:00,33.6,21.6,30.30,WSW,258,0.0,0.0,61,0.00,,---,0.00,VWS V14.01,2013-03-30 11:49:00,
2013-03-30 05:54:00,33.4,21.8,30.30,WSW,258,0.0,0.0,62,0.00,,---,0.00,VWS V14.01,2013-03-30 11:54:00,
2013-03-30 05:59:00,33.6,22.4,30.30,WSW,258,0.0,0.0,63,0.00,,---,0.00,VWS V14.01,2013-03-30 11:59:00,
2013-03-30 06:04:00,33.8,22.5,30.30,WNW,289,0.0,3.1,63,0.00,,---,0.00,VWS V14.01,2013-03-30 12:04:00,
2013-03-30 06:09:00,33.8,22.9,30.30,WNW,289,0.0,3.1,64,0.00,,---,0.00,VWS V14.01,2013-03-30 12:09:00,
2013-03-30 06:14:00,33.8,22.5,30.30,WNW,289,0.0,3.1,63,0.00,,---,0.00,VWS V14.01,2013-03-30 12:14:00,
2013-03-30 06:19:00,33.4,22.2,30.30,WNW,289,0.0,0.0,63,0.00,,---,0.00,VWS V14.01,2013-03-30 12:19:00,
2013-03-30 06:24:00,33.1,21.9,30.30,WNW,289,0.0,0.0,63,0.00,,---,0.00,VWS V14.01,2013-03-30 12:24:00,
2013-03-30 06:29:00,32.9,21.7,30.30,WSW,239,0.0,0.0,63,0.00,,---,0.00,VWS V14.01,2013-03-30 12:29:00,
2013-03-30 06:34:00,32.7,21.5,30.30,SW,234,0.0,0.0,63,0.00,,---,0.00,VWS V14.01,2013-03-30 12:34:00,
2013-03-30 06:39:00,32.9,22.1,30.30,West,275,0.0,0.0,64,0.00,,---,0.00,VWS V14.01,2013-03-30 12:39:00,
2013-03-30 06:44:00,32.9,22.1,30.30,West,275,0.0,0.0,64,0.00,,---,0.00,VWS V14.01,2013-03-30 12:44:00,
2013-03-30 06:49:00,32.7,21.9,30.30,West,275,0.0,0.0,64,0.00,,---,0.00,VWS V14.01,2013-03-30 12:49:00,
2013-03-30 06:54:00,32.7,21.9,30.30,West,275,0.0,0.0,64,0.00,,---,0.00,VWS V14.01,2013-03-30 12:54:00,
2013-03-30 06:59:00,32.7,21.9,30.30,West,275,0.0,0.0,64,0.00,,---,0.00,VWS V14.01,2013-03-30 12:59:00,
2013-03-30 07:04:00,32.5,21.7,30.30,South,183,0.0,0.0,64,0.00,,---,0.00,VWS V14.01,2013-03-30 13:04:00,
2013-03-30 07:09:00,32.4,21.6,30.30,South,182,0.0,0.0,64,0.00,,---,0.00,VWS V14.01,2013-03-30 13:09:00,
2013-03-30 07:14:00,32.2,21.4,30.30,South,183,0.0,0.0,64,0.00,,---,0.00,VWS V14.01,2013-03-30 13:14:00,
2013-03-30 07:19:00,31.8,21.0,30.30,South,183,0.0,0.0,64,0.00,,---,0.00,VWS V14.01,2013-03-30 13:19:00,
2013-03-30 07:24:00,31.6,20.9,30.30,South,183,0.0,0.0,64,0.00,,---,0.00,VWS V14.01,2013-03-30 13:24:00,
2013-03-30 07:29:00,31.1,20.4,30.33,South,183,0.0,0.0,64,0.00,,---,0.00,VWS V14.01,2013-03-30 13:29:00,
2013-03-30 07:34:00,31.1,20.7,30.33,South,183,0.0,0.0,65,0.00,,---,0.00,VWS V14.01,2013-03-30 13:34:00,
2013-03-30 07:39:00,31.3,20.9,30.33,South,183,0.0,0.0,65,0.00,,---,0.00,VWS V14.01,2013-03-30 13:39:00,
2013-03-30 07:44:00,31.1,20.7,30.30,WSW,241,0.0,0.0,65,0.00,,---,0.00,VWS V14.01,2013-03-30 13:44:00,
2013-03-30 07:49:00,31.5,21.1,30.30,WSW,237,0.0,2.2,65,0.00,,---,0.00,VWS V14.01,2013-03-30 13:49:00,
2013-03-30 07:54:00,31.8,21.8,30.30,WSW,244,0.0,2.2,66,0.00,,---,0.00,VWS V14.01,2013-03-30 13:54:00,
2013-03-30 07:59:00,32.7,23.0,30.33,SSE,149,2.7,3.6,67,0.00,,---,0.00,VWS V14.01,2013-03-30 13:59:00,
2013-03-30 08:04:00,34.2,24.7,30.33,SSW,196,0.0,3.6,68,0.00,,---,0.00,VWS V14.01,2013-03-30 14:04:00,
2013-03-30 08:09:00,35.1,25.6,30.33,SSW,196,0.0,3.6,68,0.00,,---,0.00,VWS V14.01,2013-03-30 14:09:00,
2013-03-30 08:14:00,36.3,26.8,30.33,SSW,196,0.0,3.6,68,0.00,,---,0.00,VWS V14.01,2013-03-30 14:14:00,
2013-03-30 08:19:00,37.0,27.1,30.33,SSW,196,0.0,0.0,67,0.00,,---,0.00,VWS V14.01,2013-03-30 14:19:00,
2013-03-30 08:24:00,37.9,28.0,30.33,SSW,196,0.0,0.0,67,0.00,,---,0.00,VWS V14.01,2013-03-30 14:24:00,
2013-03-30 08:29:00,39.4,29.4,30.33,SSW,196,0.0,0.0,67,0.00,,---,0.00,VWS V14.01,2013-03-30 14:29:00,
2013-03-30 08:34:00,40.6,30.5,30.33,SSW,196,0.0,0.0,67,0.00,,---,0.00,VWS V14.01,2013-03-30 14:34:00,
2013-03-30 08:39:00,41.5,31.0,30.33,SSW,196,0.0,0.0,66,0.00,,---,0.00,VWS V14.01,2013-03-30 14:39:00,
2013-03-30 08:44:00,42.4,31.5,30.33,SE,140,3.1,3.6,65,0.00,,---,0.00,VWS V14.01,2013-03-30 14:44:00,
2013-03-30 08:49:00,42.8,31.5,30.33,ESE,109,2.7,4.0,64,0.00,,---,0.00,VWS V14.01,2013-03-30 14:49:00,
2013-03-30 08:54:00,43.2,31.4,30.33,SSE,160,3.1,4.0,63,0.00,,---,0.00,VWS V14.01,2013-03-30 14:54:00,
2013-03-30 08:59:00,43.3,31.2,30.33,SSE,168,3.6,5.4,62,0.00,,---,0.00,VWS V14.01,2013-03-30 14:59:00,
2013-03-30 09:04:00,44.1,30.2,30.33,SSE,168,3.1,6.3,58,0.00,,---,0.00,VWS V14.01,2013-03-30 15:04:00,
2013-03-30 09:09:00,45.1,31.3,30.33,SE,135,0.0,6.3,58,0.00,,---,0.00,VWS V14.01,2013-03-30 15:09:00,
2013-03-30 09:14:00,46.2,31.0,30.33,South,182,4.0,6.3,55,0.00,,---,0.00,VWS V14.01,2013-03-30 15:14:00,
2013-03-30 09:19:00,46.2,28.6,30.33,SSE,167,6.3,6.3,50,0.00,,---,0.00,VWS V14.01,2013-03-30 15:19:00,
2013-03-30 09:24:00,46.6,27.5,30.33,South,187,6.3,7.6,47,0.00,,---,0.00,VWS V14.01,2013-03-30 15:24:00,
2013-03-30 09:29:00,47.1,27.4,30.33,South,170,3.1,7.6,46,0.00,,---,0.00,VWS V14.01,2013-03-30 15:29:00,
2013-03-30 09:34:00,48.2,28.9,30.33,SE,132,3.1,4.9,47,0.00,,---,0.00,VWS V14.01,2013-03-30 15:34:00,
2013-03-30 09:39:00,48.6,27.1,30.33,SSE,154,5.8,6.3,43,0.00,,---,0.00,VWS V14.01,2013-03-30 15:39:00,
2013-03-30 09:44:00,49.1,26.4,30.33,South,179,5.4,6.3,41,0.00,,---,0.00,VWS V14.01,2013-03-30 15:44:00,
2013-03-30 09:49:00,50.2,27.4,30.33,SE,140,2.2,4.0,41,0.00,,---,0.00,VWS V14.01,2013-03-30 15:49:00,
2013-03-30 09:54:00,51.6,28.7,30.33,SE,134,2.7,4.0,41,0.00,,---,0.00,VWS V14.01,2013-03-30 15:54:00,
2013-03-30 09:59:00,52.7,28.5,30.33,East,101,2.2,4.0,39,0.00,,---,0.00,VWS V14.01,2013-03-30 15:59:00,
2013-03-30 10:04:00,53.1,27.5,30.33,ENE,62,2.7,4.0,37,0.00,,---,0.00,VWS V14.01,2013-03-30 16:04:00,
2013-03-30 10:09:00,54.0,27.6,30.33,East,89,4.0,4.9,36,0.00,,---,0.00,VWS V14.01,2013-03-30 16:09:00,
2013-03-30 10:14:00,54.5,28.1,30.33,ENE,68,0.0,4.9,36,0.00,,---,0.00,VWS V14.01,2013-03-30 16:14:00,
2013-03-30 10:19:00,54.0,25.5,30.33,ENE,76,0.0,4.0,33,0.00,,---,0.00,VWS V14.01,2013-03-30 16:19:00,
2013-03-30 10:24:00,54.3,27.3,30.33,ESE,113,2.2,4.0,35,0.00,,---,0.00,VWS V14.01,2013-03-30 16:24:00,
2013-03-30 10:29:00,54.9,27.0,30.33,ESE,122,3.6,4.0,34,0.00,,---,0.00,VWS V14.01,2013-03-30 16:29:00,
2013-03-30 10:34:00,55.4,27.5,30.33,SE,130,2.7,4.0,34,0.00,,---,0.00,VWS V14.01,2013-03-30 16:34:00,
2013-03-30 10:39:00,55.6,26.2,30.33,East,87,3.1,5.8,32,0.00,,---,0.00,VWS V14.01,2013-03-30 16:39:00,
2013-03-30 10:44:00,56.3,26.8,30.33,ESE,103,2.2,5.8,32,0.00,,---,0.00,VWS V14.01,2013-03-30 16:44:00,
2013-03-30 10:49:00,56.8,25.8,30.33,East,87,2.2,5.4,30,0.00,,---,0.00,VWS V14.01,2013-03-30 16:49:00,
2013-03-30 10:54:00,57.4,25.4,30.33,East,98,3.1,5.4,29,0.00,,---,0.00,VWS V14.01,2013-03-30 16:54:00,
2013-03-30 10:59:00,57.9,25.0,30.33,East,94,4.0,5.8,28,0.00,,---,0.00,VWS V14.01,2013-03-30 16:59:00,
2013-03-30 11:04:00,57.9,23.3,30.33,NNE,21,0.0,4.0,26,0.00,,---,0.00,VWS V14.01,2013-03-30 17:04:00,
2013-03-30 11:09:00,58.3,24.5,30.33,NE,54,3.1,4.0,27,0.00,,---,0.00,VWS V14.01,2013-03-30 17:09:00,
2013-03-30 11:14:00,58.6,23.9,30.33,East,93,0.0,5.8,26,0.00,,---,0.00,VWS V14.01,2013-03-30 17:14:00,
2013-03-30 11:19:00,59.0,24.2,30.33,East,79,3.1,4.0,26,0.00,,---,0.00,VWS V14.01,2013-03-30 17:19:00,
2013-03-30 11:24:00,59.2,23.4,30.33,NE,42,0.0,7.6,25,0.00,,---,0.00,VWS V14.01,2013-03-30 17:24:00,
2013-03-30 11:29:00,59.4,23.6,30.33,ENE,69,0.0,7.6,25,0.00,,---,0.00,VWS V14.01,2013-03-30 17:29:00,
2013-03-30 11:34:00,59.7,23.9,30.33,ENE,59,0.0,3.6,25,0.00,,---,0.00,VWS V14.01,2013-03-30 17:34:00,
2013-03-30 11:39:00,60.3,24.3,30.33,ESE,102,3.1,6.3,25,0.00,,---,0.00,VWS V14.01,2013-03-30 17:39:00,
2013-03-30 11:44:00,59.5,22.7,30.30,East,96,4.0,6.3,24,0.00,,---,0.00,VWS V14.01,2013-03-30 17:44:00,
2013-03-30 11:49:00,59.4,22.6,30.30,East,89,0.0,8.1,24,0.00,,---,0.00,VWS V14.01,2013-03-30 17:49:00,
2013-03-30 11:54:00,59.5,22.7,30.30,ENE,61,3.1,8.1,24,0.00,,---,0.00,VWS V14.01,2013-03-30 17:54:00,
2013-03-30 11:59:00,60.4,23.5,30.33,SSE,149,4.9,8.7,24,0.00,,---,0.00,VWS V14.01,2013-03-30 17:59:00,
2013-03-30 12:04:00,59.7,22.9,30.33,NNE,32,2.7,7.6,24,0.00,,---,0.00,VWS V14.01,2013-03-30 18:04:00,
2013-03-30 12:09:00,60.3,23.4,30.33,NE,42,2.7,7.6,24,0.00,,---,0.00,VWS V14.01,2013-03-30 18:09:00,
2013-03-30 12:14:00,60.8,23.8,30.33,ESE,106,3.1,7.6,24,0.00,,---,0.00,VWS V14.01,2013-03-30 18:14:00,
2013-03-30 12:19:00,61.0,24.0,30.33,SE,138,4.0,5.8,24,0.00,,---,0.00,VWS V14.01,2013-03-30 18:19:00,
2013-03-30 12:24:00,60.6,23.6,30.33,ESE,116,2.7,5.8,24,0.00,,---,0.00,VWS V14.01,2013-03-30 18:24:00,
2013-03-30 12:29:00,60.6,23.6,30.33,NNW,327,4.9,5.8,24,0.00,,---,0.00,VWS V14.01,2013-03-30 18:29:00,
2013-03-30 12:34:00,59.2,22.4,30.33,North,9,4.0,6.3,24,0.00,,---,0.00,VWS V14.01,2013-03-30 18:34:00,
2013-03-30 12:39:00,59.4,22.6,30.33,NNW,345,0.0,6.3,24,0.00,,---,0.00,VWS V14.01,2013-03-30 18:39:00,
2013-03-30 12:44:00,60.8,23.8,30.33,ENE,75,3.1,8.1,24,0.00,,---,0.00,VWS V14.01,2013-03-30 18:44:00,
2013-03-30 12:49:00,61.7,24.6,30.33,East,101,3.6,4.5,24,0.00,,---,0.00,VWS V14.01,2013-03-30 18:49:00,
2013-03-30 12:54:00,62.2,21.9,30.33,ESE,103,5.8,7.6,21,0.00,,---,0.00,VWS V14.01,2013-03-30 18:54:00,
2013-03-30 12:59:00,62.2,21.9,30.33,ESE,103,4.0,7.6,21,0.00,,---,0.00,VWS V14.01,2013-03-30 18:59:00,
2013-03-30 13:04:00,62.4,22.0,30.33,ENE,75,3.6,4.0,21,0.00,,---,0.00,VWS V14.01,2013-03-30 19:04:00,
2013-03-30 13:09:00,63.1,22.6,30.33,North,357,0.0,4.0,21,0.00,,---,0.00,VWS V14.01,2013-03-30 19:09:00,
2013-03-30 13:14:00,63.7,23.0,30.30,SW,222,4.0,5.8,21,0.00,,---,0.00,VWS V14.01,2013-03-30 19:14:00,
2013-03-30 13:19:00,64.4,22.5,30.30,East,83,4.0,6.3,20,0.00,,---,0.00,VWS V14.01,2013-03-30 19:19:00,
2013-03-30 13:24:00,64.4,22.5,30.30,ENE,68,4.0,6.7,20,0.00,,---,0.00,VWS V14.01,2013-03-30 19:24:00,
2013-03-30 13:29:00,63.3,22.8,30.30,SE,141,7.6,8.3,21,0.00,,---,0.00,VWS V14.01,2013-03-30 19:29:00,
2013-03-30 13:34:00,62.4,22.0,30.30,SSE,147,5.8,6.3,21,0.00,,---,0.00,VWS V14.01,2013-03-30 19:34:00,
2013-03-30 13:39:00,62.2,21.9,30.30,South,173,3.6,6.3,21,0.00,,---,0.00,VWS V14.01,2013-03-30 19:39:00,
2013-03-30 13:44:00,62.8,22.3,30.30,SE,138,0.0,6.3,21,0.00,,---,0.00,VWS V14.01,2013-03-30 19:44:00,
2013-03-30 13:49:00,62.4,19.6,30.30,WNW,300,3.1,5.4,19,0.00,,---,0.00,VWS V14.01,2013-03-30 19:49:00,
2013-03-30 13:54:00,60.1,17.7,30.30,North,357,4.0,5.4,19,0.00,,---,0.00,VWS V14.01,2013-03-30 19:54:00,
2013-03-30 13:59:00,59.9,17.6,30.27,ENE,72,4.9,5.4,19,0.00,,---,0.00,VWS V14.01,2013-03-30 19:59:00,
2013-03-30 14:04:00,60.6,18.2,30.27,SSW,196,3.6,6.3,19,0.00,,---,0.00,VWS V14.01,2013-03-30 20:04:00,
2013-03-30 14:09:00,61.7,19.0,30.27,SE,144,8.7,8.7,19,0.00,,---,0.00,VWS V14.01,2013-03-30 20:09:00,
2013-03-30 14:14:00,60.6,18.2,30.30,SSW,204,3.6,8.7,19,0.00,,---,0.00,VWS V14.01,2013-03-30 20:14:00,
2013-03-30 14:19:00,59.7,17.4,30.30,SE,131,3.1,4.0,19,0.00,,---,0.00,VWS V14.01,2013-03-30 20:19:00,
2013-03-30 14:24:00,58.3,16.2,30.30,South,177,4.9,4.9,19,0.00,,---,0.00,VWS V14.01,2013-03-30 20:24:00,
2013-03-30 14:29:00,59.2,17.0,30.30,SE,136,2.7,5.4,19,0.00,,---,0.00,VWS V14.01,2013-03-30 20:29:00,
2013-03-30 14:34:00,61.2,20.9,30.30,ENE,72,3.6,6.3,21,0.00,,---,0.00,VWS V14.01,2013-03-30 20:34:00,
2013-03-30 14:39:00,62.6,18.5,30.30,NNE,12,3.6,6.3,18,0.00,,---,0.00,VWS V14.01,2013-03-30 20:39:00,
2013-03-30 14:44:00,62.4,19.6,30.27,East,91,0.0,6.3,19,0.00,,---,0.00,VWS V14.01,2013-03-30 20:44:00,
2013-03-30 14:49:00,63.1,19.0,30.27,West,279,3.1,5.8,18,0.00,,---,0.00,VWS V14.01,2013-03-30 20:49:00,
2013-03-30 14:54:00,63.9,19.6,30.27,WSW,248,4.0,6.3,18,0.00,,---,0.00,VWS V14.01,2013-03-30 20:54:00,
2013-03-30 14:59:00,64.0,19.7,30.27,NW,316,0.0,6.3,18,0.00,,---,0.00,VWS V14.01,2013-03-30 20:59:00,
2013-03-30 15:04:00,63.0,18.8,30.27,NNE,16,0.0,4.0,18,0.00,,---,0.00,VWS V14.01,2013-03-30 21:04:00,
2013-03-30 15:09:00,64.8,20.3,30.27,East,99,3.1,4.0,18,0.00,,---,0.00,VWS V14.01,2013-03-30 21:09:00,
2013-03-30 15:14:00,65.5,20.9,30.27,East,88,3.1,4.9,18,0.00,,---,0.00,VWS V14.01,2013-03-30 21:14:00,
2013-03-30 15:19:00,64.4,20.0,30.27,North,0,3.1,8.3,18,0.00,,---,0.00,VWS V14.01,2013-03-30 21:19:00,
2013-03-30 15:24:00,64.4,20.0,30.27,ESE,108,2.7,8.3,18,0.00,,---,0.00,VWS V14.01,2013-03-30 21:24:00,
2013-03-30 15:29:00,65.1,20.6,30.27,SE,144,4.0,8.3,18,0.00,,---,0.00,VWS V14.01,2013-03-30 21:29:00,
2013-03-30 15:34:00,64.8,20.3,30.27,WSW,248,3.1,3.6,18,0.00,,---,0.00,VWS V14.01,2013-03-30 21:34:00,
2013-03-30 15:39:00,65.7,21.0,30.27,East,90,0.0,4.0,18,0.00,,---,0.00,VWS V14.01,2013-03-30 21:39:00,
2013-03-30 15:44:00,66.9,20.7,30.27,East,97,3.6,4.5,17,0.00,,---,0.00,VWS V14.01,2013-03-30 21:44:00,
2013-03-30 15:49:00,66.9,20.7,30.27,East,90,0.0,5.4,17,0.00,,---,0.00,VWS V14.01,2013-03-30 21:49:00,
2013-03-30 15:54:00,66.9,20.7,30.27,SSW,196,2.2,5.8,17,0.00,,---,0.00,VWS V14.01,2013-03-30 21:54:00,
2013-03-30 15:59:00,66.6,20.4,30.24,East,84,0.0,5.8,17,0.00,,---,0.00,VWS V14.01,2013-03-30 21:59:00,
2013-03-30 16:04:00,66.2,20.1,30.24,SW,232,6.3,6.3,17,0.00,,---,0.00,VWS V14.01,2013-03-30 22:04:00,
2013-03-30 16:09:00,66.0,21.3,30.24,ESE,103,2.7,6.3,18,0.00,,---,0.00,VWS V14.01,2013-03-30 22:09:00,
2013-03-30 16:14:00,66.6,20.4,30.24,SW,218,3.1,6.3,17,0.00,,---,0.00,VWS V14.01,2013-03-30 22:14:00,
2013-03-30 16:19:00,66.2,20.1,30.24,NW,318,2.7,5.4,17,0.00,,---,0.00,VWS V14.01,2013-03-30 22:19:00,
2013-03-30 16:24:00,64.4,20.0,30.24,NNE,16,2.2,5.8,18,0.00,,---,0.00,VWS V14.01,2013-03-30 22:24:00,
2013-03-30 16:29:00,64.4,20.0,30.24,WSW,258,0.0,5.8,18,0.00,,---,0.00,VWS V14.01,2013-03-30 22:29:00,
2013-03-30 16:34:00,64.8,20.3,30.24,WNW,290,2.7,4.5,18,0.00,,---,0.00,VWS V14.01,2013-03-30 22:34:00,
2013-03-30 16:39:00,65.1,20.6,30.24,SE,128,0.0,4.9,18,0.00,,---,0.00,VWS V14.01,2013-03-30 22:39:00,
2013-03-30 16:44:00,65.8,21.2,30.24,NW,310,2.2,5.8,18,0.00,,---,0.00,VWS V14.01,2013-03-30 22:44:00,
2013-03-30 16:49:00,65.8,21.2,30.24,SW,221,0.0,5.4,18,0.00,,---,0.00,VWS V14.01,2013-03-30 22:49:00,
2013-03-30 16:54:00,65.7,21.0,30.24,WNW,294,4.0,7.2,18,0.00,,---,0.00,VWS V14.01,2013-03-30 22:54:00,
2013-03-30 16:59:00,64.8,20.3,30.24,NW,318,3.6,7.2,18,0.00,,---,0.00,VWS V14.01,2013-03-30 22:59:00,
2013-03-30 17:04:00,64.2,19.9,30.24,North,4,2.7,4.0,18,0.00,,---,0.00,VWS V14.01,2013-03-30 23:04:00,
2013-03-30 17:09:00,63.9,19.6,30.24,NW,311,2.7,4.0,18,0.00,,---,0.00,VWS V14.01,2013-03-30 23:09:00,
2013-03-30 17:14:00,64.2,19.9,30.24,WNW,303,2.7,5.4,18,0.00,,---,0.00,VWS V14.01,2013-03-30 23:14:00,
2013-03-30 17:19:00,63.9,19.6,30.24,NNW,329,0.0,5.4,18,0.00,,---,0.00,VWS V14.01,2013-03-30 23:19:00,
2013-03-30 17:24:00,63.0,18.8,30.24,North,3,2.7,5.4,18,0.00,,---,0.00,VWS V14.01,2013-03-30 23:24:00,
2013-03-30 17:29:00,63.0,18.8,30.21,NW,306,4.0,5.4,18,0.00,,---,0.00,VWS V14.01,2013-03-30 23:29:00,
2013-03-30 17:34:00,63.5,19.3,30.21,NNW,330,2.2,4.5,18,0.00,,---,0.00,VWS V14.01,2013-03-30 23:34:00,
2013-03-30 17:39:00,63.1,19.0,30.21,NNW,341,0.0,4.5,18,0.00,,---,0.00,VWS V14.01,2013-03-30 23:39:00,
2013-03-30 17:44:00,62.8,18.7,30.21,NW,317,3.1,4.9,18,0.00,,---,0.00,VWS V14.01,2013-03-30 23:44:00,
2013-03-30 17:49:00,63.0,18.8,30.21,NNE,18,3.6,4.0,18,0.00,,---,0.00,VWS V14.01,2013-03-30 23:49:00,
2013-03-30 17:54:00,61.7,19.0,30.21,WNW,301,2.7,5.8,19,0.00,,---,0.00,VWS V14.01,2013-03-30 23:54:00,
2013-03-30 17:59:00,61.3,18.8,30.21,NW,306,2.7,5.8,19,0.00,,---,0.00,VWS V14.01,2013-03-30 23:59:00,
2013-03-30 18:04:00,61.3,18.8,30.21,WNW,299,2.7,5.4,19,0.00,,---,0.00,VWS V14.01,2013-03-31 00:04:00,
2013-03-30 18:09:00,60.8,18.3,30.21,North,3,2.2,5.4,19,0.00,,---,0.00,VWS V14.01,2013-03-31 00:09:00,
2013-03-30 18:14:00,60.3,17.9,30.21,North,357,0.0,5.4,19,0.00,,---,0.00,VWS V14.01,2013-03-31 00:14:00,
2013-03-30 18:19:00,59.9,17.6,30.21,NW,305,5.4,5.8,19,0.00,,---,0.00,VWS V14.01,2013-03-31 00:19:00,
2013-03-30 18:24:00,59.7,17.4,30.21,WNW,302,0.0,5.8,19,0.00,,---,0.00,VWS V14.01,2013-03-31 00:24:00,
2013-03-30 18:29:00,59.2,17.0,30.21,NNW,337,0.0,5.8,19,0.00,,---,0.00,VWS V14.01,2013-03-31 00:29:00,
2013-03-30 18:34:00,58.6,16.5,30.21,North,0,0.0,0.0,19,0.00,,---,0.00,VWS V14.01,2013-03-31 00:34:00,
2013-03-30 18:39:00,58.5,16.4,30.21,NNW,333,0.0,5.4,19,0.00,,---,0.00,VWS V14.01,2013-03-31 00:39:00,
2013-03-30 18:44:00,58.3,16.2,30.21,NW,317,4.0,5.4,19,0.00,,---,0.00,VWS V14.01,2013-03-31 00:44:00,
2013-03-30 18:49:00,58.1,16.1,30.21,WNW,298,3.6,4.9,19,0.00,,---,0.00,VWS V14.01,2013-03-31 00:49:00,
2013-03-30 18:54:00,57.9,15.9,30.21,NNW,343,2.7,4.9,19,0.00,,---,0.00,VWS V14.01,2013-03-31 00:54:00,
2013-03-30 18:59:00,57.7,15.8,30.21,NW,315,2.7,4.9,19,0.00,,---,0.00,VWS V14.01,2013-03-31 00:59:00,
2013-03-30 19:04:00,57.4,15.5,30.21,NW,318,3.6,5.4,19,0.00,,---,0.00,VWS V14.01,2013-03-31 01:04:00,
2013-03-30 19:09:00,56.8,16.2,30.21,WSW,244,3.6,5.8,20,0.00,,---,0.00,VWS V14.01,2013-03-31 01:09:00,
2013-03-30 19:14:00,56.5,15.9,30.21,NNW,341,4.9,5.8,20,0.00,,---,0.00,VWS V14.01,2013-03-31 01:14:00,
2013-03-30 19:19:00,55.9,15.5,30.21,WSW,244,0.0,4.0,20,0.00,,---,0.00,VWS V14.01,2013-03-31 01:19:00,
2013-03-30 19:24:00,55.0,14.7,30.21,WNW,283,0.0,4.0,20,0.00,,---,0.00,VWS V14.01,2013-03-31 01:24:00,
2013-03-30 19:29:00,54.0,13.8,30.21,WNW,283,0.0,4.0,20,0.00,,---,0.00,VWS V14.01,2013-03-31 01:29:00,
2013-03-30 19:34:00,52.5,13.7,30.21,SW,214,3.1,4.0,21,0.00,,---,0.00,VWS V14.01,2013-03-31 01:34:00,
2013-03-30 19:39:00,51.8,13.1,30.21,WSW,238,2.7,4.0,21,0.00,,---,0.00,VWS V14.01,2013-03-31 01:39:00,
2013-03-30 19:44:00,51.4,12.8,30.18,SW,227,2.7,4.0,21,0.00,,---,0.00,VWS V14.01,2013-03-31 01:44:00,
2013-03-30 19:49:00,50.9,12.4,30.18,SW,234,0.0,2.7,21,0.00,,---,0.00,VWS V14.01,2013-03-31 01:49:00,
2013-03-30 19:54:00,50.5,12.1,30.18,WSW,245,0.0,2.7,21,0.00,,---,0.00,VWS V14.01,2013-03-31 01:54:00,
2013-03-30 19:59:00,48.7,13.6,30.21,WSW,246,0.0,2.7,24,0.00,,---,0.00,VWS V14.01,2013-03-31 01:59:00,
2013-03-30 20:04:00,47.7,12.7,30.21,West,281,0.0,0.0,24,0.00,,---,0.00,VWS V14.01,2013-03-31 02:04:00,
2013-03-30 20:09:00,47.5,12.5,30.21,West,259,0.0,2.2,24,0.00,,---,0.00,VWS V14.01,2013-03-31 02:09:00,
2013-03-30 20:15:00,46.6,11.7,30.21,WSW,254,2.7,2.7,24,0.00,,---,0.00,VWS V14.01,2013-03-31 02:15:00,
2013-03-30 20:20:00,46.0,12.2,30.21,WSW,253,2.7,3.6,25,0.00,,---,0.00,VWS V14.01,2013-03-31 02:20:00,
2013-03-30 20:25:00,45.5,13.5,30.21,West,265,0.0,3.6,27,0.00,,---,0.00,VWS V14.01,2013-03-31 02:25:00,
2013-03-30 20:30:00,44.6,12.7,30.21,WSW,243,2.7,3.6,27,0.00,,---,0.00,VWS V14.01,2013-03-31 02:30:00,
2013-03-30 20:35:00,44.1,13.1,30.21,WSW,247,0.0,2.7,28,0.00,,---,0.00,VWS V14.01,2013-03-31 02:35:00,
2013-03-30 20:40:00,43.2,13.1,30.21,WSW,246,0.0,2.7,29,0.00,,---,0.00,VWS V14.01,2013-03-31 02:40:00,
2013-03-30 20:45:00,42.6,12.6,30.21,WSW,254,0.0,0.0,29,0.00,,---,0.00,VWS V14.01,2013-03-31 02:45:00,
2013-03-30 20:50:00,42.8,12.8,30.21,WSW,254,0.0,3.1,29,0.00,,---,0.00,VWS V14.01,2013-03-31 02:50:00,
2013-03-30 20:55:00,42.3,12.3,30.21,WSW,254,0.0,3.1,29,0.00,,---,0.00,VWS V14.01,2013-03-31 02:55:00,
2013-03-30 21:00:00,41.9,12.0,30.21,SW,229,0.0,0.0,29,0.00,,---,0.00,VWS V14.01,2013-03-31 03:00:00,
2013-03-30 21:05:00,41.4,12.3,30.21,WSW,242,0.0,0.0,30,0.00,,---,0.00,VWS V14.01,2013-03-31 03:05:00,
2013-03-30 21:10:00,40.6,11.6,30.21,WSW,242,0.0,0.0,30,0.00,,---,0.00,VWS V14.01,2013-03-31 03:10:00,
2013-03-30 21:15:00,40.6,13.8,30.21,WNW,293,0.0,0.0,33,0.00,,---,0.00,VWS V14.01,2013-03-31 03:15:00,
2013-03-30 21:20:00,40.3,12.8,30.21,SSE,148,2.7,3.1,32,0.00,,---,0.00,VWS V14.01,2013-03-31 03:20:00,
2013-03-30 21:25:00,39.4,12.7,30.21,SW,225,0.0,3.1,33,0.00,,---,0.00,VWS V14.01,2013-03-31 03:25:00,
2013-03-30 21:30:00,39.2,13.2,30.21,SW,230,0.0,0.0,34,0.00,,---,0.00,VWS V14.01,2013-03-31 03:30:00,
2013-03-30 21:35:00,39.0,14.3,30.21,SW,232,0.0,0.0,36,0.00,,---,0.00,VWS V14.01,2013-03-31 03:35:00,
2013-03-30 21:40:00,38.8,13.5,30.21,WSW,253,0.0,0.0,35,0.00,,---,0.00,VWS V14.01,2013-03-31 03:40:00,
2013-03-30 21:45:00,38.8,14.8,30.21,WNW,282,0.0,0.0,37,0.00,,---,0.00,VWS V14.01,2013-03-31 03:45:00,
2013-03-30 21:50:00,38.5,14.5,30.21,WNW,282,0.0,0.0,37,0.00,,---,0.00,VWS V14.01,2013-03-31 03:50:00,
2013-03-30 21:55:00,38.5,15.7,30.21,WNW,288,0.0,0.0,39,0.00,,---,0.00,VWS V14.01,2013-03-31 03:55:00,
2013-03-30 22:00:00,38.3,14.9,30.21,WNW,288,0.0,0.0,38,0.00,,---,0.00,VWS V14.01,2013-03-31 04:00:00,
2013-03-30 22:05:00,37.9,15.2,30.21,West,274,0.0,2.2,39,0.00,,---,0.00,VWS V14.01,2013-03-31 04:05:00,
2013-03-30 22:10:00,37.9,15.2,30.21,WSW,256,2.2,3.6,39,0.00,,---,0.00,VWS V14.01,2013-03-31 04:10:00,
2013-03-30 22:15:00,37.9,15.2,30.21,SE,136,0.0,0.0,39,0.00,,---,0.00,VWS V14.01,2013-03-31 04:15:00,
2013-03-30 22:20:00,37.9,15.2,30.21,WSW,241,0.0,3.1,39,0.00,,---,0.00,VWS V14.01,2013-03-31 04:20:00,
2013-03-30 22:25:00,37.8,15.0,30.21,West,267,0.0,3.1,39,0.00,,---,0.00,VWS V14.01,2013-03-31 04:25:00,
2013-03-30 22:30:00,37.4,15.3,30.21,WSW,238,0.0,0.0,40,0.00,,---,0.00,VWS V14.01,2013-03-31 04:30:00,
2013-03-30 22:35:00,37.0,15.0,30.21,West,281,3.6,3.6,40,0.00,,---,0.00,VWS V14.01,2013-03-31 04:35:00,
2013-03-30 22:40:00,36.9,15.4,30.21,South,183,3.1,3.6,41,0.00,,---,0.00,VWS V14.01,2013-03-31 04:40:00,
2013-03-30 22:45:00,37.9,15.8,30.21,WSW,240,2.7,4.0,40,0.00,,---,0.00,VWS V14.01,2013-03-31 04:45:00,
2013-03-30 22:50:00,38.5,16.3,30.21,SW,221,0.0,4.0,40,0.00,,---,0.00,VWS V14.01,2013-03-31 04:50:00,
2013-03-30 22:55:00,38.8,16.6,30.21,WNW,291,3.1,4.0,40,0.00,,---,0.00,VWS V14.01,2013-03-31 04:55:00,
2013-03-30 23:00:00,38.1,15.4,30.21,WSW,256,2.2,2.2,39,0.00,,---,0.00,VWS V14.01,2013-03-31 05:00:00,
2013-03-30 23:05:00,37.6,14.9,30.21,WSW,255,2.7,4.9,39,0.00,,---,0.00,VWS V14.01,2013-03-31 05:05:00,
2013-03-30 23:10:00,37.0,15.0,30.21,WSW,238,2.7,4.9,40,0.00,,---,0.00,VWS V14.01,2013-03-31 05:10:00,
2013-03-30 23:15:00,36.7,14.6,30.21,WSW,257,2.7,2.7,40,0.00,,---,0.00,VWS V14.01,2013-03-31 05:15:00,
2013-03-30 23:20:00,36.3,14.3,30.21,WSW,258,0.0,2.7,40,0.00,,---,0.00,VWS V14.01,2013-03-31 05:20:00,
2013-03-30 23:25:00,35.8,14.4,30.21,WSW,256,0.0,2.7,41,0.00,,---,0.00,VWS V14.01,2013-03-31 05:25:00,
2013-03-30 23:30:00,35.4,14.6,30.21,WSW,257,0.0,2.7,42,0.00,,---,0.00,VWS V14.01,2013-03-31 05:30:00,
2013-03-30 23:35:00,35.2,14.5,30.21,WSW,257,2.7,3.1,42,0.00,,---,0.00,VWS V14.01,2013-03-31 05:35:00,
2013-03-30 23:40:00,36.1,15.3,30.21,South,176,2.2,4.9,42,0.00,,---,0.00,VWS V14.01,2013-03-31 05:40:00,
2013-03-30 23:45:00,37.6,16.0,30.21,South,178,3.6,4.0,41,0.00,,---,0.00,VWS V14.01,2013-03-31 05:45:00,
2013-03-30 23:50:00,38.3,16.7,30.21,West,271,0.0,5.4,41,0.00,,---,0.00,VWS V14.01,2013-03-31 05:50:00,
2013-03-30 23:55:00,37.6,15.5,30.21,WSW,237,3.1,5.4,40,0.00,,---,0.00,VWS V14.01,2013-03-31 05:55:00,